DL1MMS-10 Weather Reports


Display with metric or nautical units.
time (UTC)temp
F
wind
direction
speed
MPH
gust
MPH
rain 1hr
in
rain 24hr
in
rain mn
in
humidity
%
barometer
mb
20260905201716 58 0 0.0 0.0 0.00 0.00 0.00 83 1026.0
20260905201216 58 0 0.0 0.0 0.00 0.00 0.00 83 1026.1
20260905200715 58 0 0.0 0.0 0.00 0.00 0.00 82 1025.9
20260905200215 59 0 0.0 0.0 0.00 0.00 0.00 82 1025.9
20260905195715 59 0 0.0 0.0 0.00 0.00 0.00 82 1025.8
20260905195215 59 0 0.0 0.0 0.00 0.00 0.00 82 1025.8
20260905194714 59 0 0.0 0.0 0.00 0.00 0.00 83 1025.8
20260905194214 59 0 0.0 0.0 0.00 0.00 0.00 83 1025.7
20260905193714 59 0 0.0 0.0 0.00 0.00 0.00 82 1025.6
20260905193213 59 0 0.0 0.0 0.00 0.00 0.00 82 1025.6
20260905192713 59 0 0.0 0.0 0.00 0.00 0.00 82 1025.8
20260905192213 59 0 0.0 0.0 0.00 0.00 0.00 81 1025.8
20260905191713 59 0 0.0 0.0 0.00 0.00 0.00 81 1025.7
20260905191212 59 0 0.0 0.0 0.00 0.00 0.00 81 1025.5
20260905190712 60 0 0.0 0.0 0.00 0.00 0.00 80 1025.5
20260905190212 60 0 0.0 0.0 0.00 0.00 0.00 80 1025.3
20260905185711 60 0 0.0 0.0 0.00 0.00 0.00 79 1025.3
20260905185211 61 0 0.0 0.0 0.00 0.00 0.00 79 1025.2
20260905184711 61 0 0.0 0.0 0.00 0.00 0.00 77 1025.3
20260905184211 61 0 0.0 0.0 0.00 0.00 0.00 77 1025.3
20260905183710 62 0 0.0 0.0 0.00 0.00 0.00 77 1025.1
20260905183210 62 0 0.0 0.0 0.00 0.00 0.00 76 1025.1
20260905182710 62 0 0.0 0.0 0.00 0.00 0.00 76 1025.0
20260905182209 62 0 0.0 0.0 0.00 0.00 0.00 76 1024.8
20260905181709 62 0 0.0 0.0 0.00 0.00 0.00 76 1024.7
20260905181209 62 0 0.0 0.0 0.00 0.00 0.00 75 1024.8
20260905180709 63 0 0.0 0.0 0.00 0.00 0.00 75 1024.7
20260905180208 63 0 0.0 0.0 0.00 0.00 0.00 74 1024.6
20260905175708 63 0 0.0 0.0 0.00 0.00 0.00 74 1024.5
20260905175208 63 0 0.0 0.0 0.00 0.00 0.00 73 1024.6
20260905174708 64 0 0.0 0.0 0.00 0.00 0.00 73 1024.7
20260905174207 64 0 0.0 0.0 0.00 0.00 0.00 73 1024.6
20260905173707 64 0 0.0 0.0 0.00 0.00 0.00 72 1024.5
20260905173207 64 0 0.0 0.0 0.00 0.00 0.00 71 1024.4
20260905172706 65 0 0.0 0.0 0.00 0.00 0.00 71 1024.4
20260905172206 65 0 0.0 0.0 0.00 0.00 0.00 71 1024.5
20260905171706 66 0 0.0 0.0 0.00 0.00 0.00 70 1024.4
20260905171206 66 0 0.0 0.0 0.00 0.00 0.00 69 1024.5
20260905170705 66 0 0.0 0.0 0.00 0.00 0.00 69 1024.7
20260905170205 66 0 0.0 0.0 0.00 0.00 0.00 69 1024.6
20260905165705 66 0 0.0 0.0 0.00 0.00 0.00 68 1024.8
20260905165204 66 0 0.0 0.0 0.00 0.00 0.00 67 1024.7
20260905164704 67 0 0.0 0.0 0.00 0.00 0.00 67 1024.7
20260905164204 68 0 0.0 0.0 0.00 0.00 0.00 65 1024.7
20260905163704 69 0 0.0 0.0 0.00 0.00 0.00 64 1024.6
20260905163203 70 0 0.0 0.0 0.00 0.00 0.00 63 1024.5
20260905162703 71 0 0.0 0.0 0.00 0.00 0.00 60 1024.5
20260905162203 73 0 0.0 0.0 0.00 0.00 0.00 60 1024.5
20260905161702 73 0 0.0 0.0 0.00 0.00 0.00 62 1024.4
20260905161202 70 0 0.0 0.0 0.00 0.00 0.00 67 1024.2
20260905160702 69 0 0.0 0.0 0.00 0.00 0.00 67 1024.1
20260905160202 69 0 0.0 0.0 0.00 0.00 0.00 67 1024.1
20260905155701 70 0 0.0 0.0 0.00 0.00 0.00 68 1024.0
20260905155201 70 0 0.0 0.0 0.00 0.00 0.00 67 1023.8
20260905154701 70 0 0.0 0.0 0.00 0.00 0.00 67 1023.9
20260905154200 71 0 0.0 0.0 0.00 0.00 0.00 65 1024.1
20260905153700 71 0 0.0 0.0 0.00 0.00 0.00 64 1024.1
20260905153200 72 0 0.0 0.0 0.00 0.00 0.00 64 1024.1
20260905152700 72 0 0.0 0.0 0.00 0.00 0.00 64 1024.2
20260905152159 72 0 0.0 0.0 0.00 0.00 0.00 64 1024.2
20260905151659 72 0 0.0 0.0 0.00 0.00 0.00 64 1024.2
20260905151159 73 0 0.0 0.0 0.00 0.00 0.00 63 1024.2
20260905150658 73 0 0.0 0.0 0.00 0.00 0.00 62 1024.2
20260905150158 74 0 0.0 0.0 0.00 0.00 0.00 61 1024.1
20260905145658 75 0 0.0 0.0 0.00 0.00 0.00 59 1024.0
20260905145158 76 0 0.0 0.0 0.00 0.00 0.00 58 1024.2
20260905144657 78 0 0.0 0.0 0.00 0.00 0.00 55 1024.1
20260905144157 79 0 0.0 0.0 0.00 0.00 0.00 53 1024.1
20260905143657 82 0 0.0 0.0 0.00 0.00 0.00 51 1024.1
20260905143156 83 0 0.0 0.0 0.00 0.00 0.00 49 1024.1
20260905142656 85 0 0.0 0.0 0.00 0.00 0.00 46 1024.2
20260905142156 89 0 0.0 0.0 0.00 0.00 0.00 44 1024.1
20260905141656 90 0 0.0 0.0 0.00 0.00 0.00 48 1024.1
20260905141155 88 0 0.0 0.0 0.00 0.00 0.00 50 1024.1
20260905140655 85 0 0.0 0.0 0.00 0.00 0.00 53 1024.2
20260905140155 83 0 0.0 0.0 0.00 0.00 0.00 57 1024.1
20260905135654 78 0 0.0 0.0 0.00 0.00 0.00 62 1024.1
20260905135154 76 0 0.0 0.0 0.00 0.00 0.00 63 1024.2
20260905134654 75 0 0.0 0.0 0.00 0.00 0.00 64 1024.2
20260905134154 75 0 0.0 0.0 0.00 0.00 0.00 61 1024.2
20260905133653 78 0 0.0 0.0 0.00 0.00 0.00 58 1024.0
20260905133153 81 0 0.0 0.0 0.00 0.00 0.00 55 1024.1
20260905132653 84 0 0.0 0.0 0.00 0.00 0.00 54 1024.1
20260905132152 85 0 0.0 0.0 0.00 0.00 0.00 54 1024.1
20260905131652 84 0 0.0 0.0 0.00 0.00 0.00 57 1024.2
20260905131152 81 0 0.0 0.0 0.00 0.00 0.00 59 1024.2
20260905130652 79 0 0.0 0.0 0.00 0.00 0.00 62 1024.1
20260905130151 76 0 0.0 0.0 0.00 0.00 0.00 68 1024.1
20260905125651 73 0 0.0 0.0 0.00 0.00 0.00 71 1024.3
20260905125151 72 0 0.0 0.0 0.00 0.00 0.00 72 1024.3
20260905124651 72 0 0.0 0.0 0.00 0.00 0.00 74 1024.2
20260905124150 71 0 0.0 0.0 0.00 0.00 0.00 79 1024.2
20260905123650 68 0 0.0 0.0 0.00 0.00 0.00 82 1024.2
20260905123150 65 0 0.0 0.0 0.00 0.00 0.00 86 1024.2
20260905122649 63 0 0.0 0.0 0.00 0.00 0.00 87 1024.3
20260905122149 61 0 0.0 0.0 0.00 0.00 0.00 86 1024.2
20260905121649 60 0 0.0 0.0 0.00 0.00 0.00 86 1024.2
20260905121148 60 0 0.0 0.0 0.00 0.00 0.00 86 1024.2
20260905120648 60 0 0.0 0.0 0.00 0.00 0.00 85 1024.4
20260905120148 60 0 0.0 0.0 0.00 0.00 0.00 84 1024.4
20260905115648 60 0 0.0 0.0 0.00 0.00 0.00 84 1024.2
20260905115147 60 0 0.0 0.0 0.00 0.00 0.00 83 1024.4
20260905114647 61 0 0.0 0.0 0.00 0.00 0.00 82 1024.3
20260905114147 60 0 0.0 0.0 0.00 0.00 0.00 83 1024.3
20260905113647 60 0 0.0 0.0 0.00 0.00 0.00 82 1024.3
20260905113146 60 0 0.0 0.0 0.00 0.00 0.00 82 1024.2
20260905112646 60 0 0.0 0.0 0.00 0.00 0.00 81 1024.2
20260905112146 60 0 0.0 0.0 0.00 0.00 0.00 81 1024.3
20260905111645 61 0 0.0 0.0 0.00 0.00 0.00 80 1024.3
20260905111145 61 0 0.0 0.0 0.00 0.00 0.00 79 1024.3
20260905110645 61 0 0.0 0.0 0.00 0.00 0.00 78 1024.3
20260905110145 61 0 0.0 0.0 0.00 0.00 0.00 78 1024.5
20260905105644 62 0 0.0 0.0 0.00 0.00 0.00 77 1024.4
20260905105144 62 0 0.0 0.0 0.00 0.00 0.00 76 1024.5
20260905104644 63 0 0.0 0.0 0.00 0.00 0.00 75 1024.3
20260905104143 64 0 0.0 0.0 0.00 0.00 0.00 75 1024.2
20260905103643 64 0 0.0 0.0 0.00 0.00 0.00 74 1024.1
20260905103143 65 0 0.0 0.0 0.00 0.00 0.00 74 1023.9
20260905102643 65 0 0.0 0.0 0.00 0.00 0.00 73 1023.9
20260905102142 65 0 0.0 0.0 0.00 0.00 0.00 74 1023.8
20260905101642 65 0 0.0 0.0 0.00 0.00 0.00 76 1023.7
20260905101142 64 0 0.0 0.0 0.00 0.00 0.00 76 1023.8
20260905100641 64 0 0.0 0.0 0.00 0.00 0.00 76 1023.9
20260905100141 64 0 0.0 0.0 0.00 0.00 0.00 75 1023.8
20260905095641 64 0 0.0 0.0 0.00 0.00 0.00 75 1023.8
20260905095141 64 0 0.0 0.0 0.00 0.00 0.00 74 1023.9
20260905094640 64 0 0.0 0.0 0.00 0.00 0.00 74 1023.8
20260905094140 65 0 0.0 0.0 0.00 0.00 0.00 73 1023.9
20260905093640 66 0 0.0 0.0 0.00 0.00 0.00 71 1023.8
20260905093139 66 0 0.0 0.0 0.00 0.00 0.00 70 1023.5
20260905092640 66 0 0.0 0.0 0.00 0.00 0.00 70 1023.4
20260905092139 66 0 0.0 0.0 0.00 0.00 0.00 70 1023.4
20260905091639 66 0 0.0 0.0 0.00 0.00 0.00 71 1023.6
20260905091138 66 0 0.0 0.0 0.00 0.00 0.00 70 1023.5
20260905090638 67 0 0.0 0.0 0.00 0.00 0.00 69 1023.5
20260905090138 68 0 0.0 0.0 0.00 0.00 0.00 69 1023.4
20260905085637 68 0 0.0 0.0 0.00 0.00 0.00 71 1023.4
20260905085137 67 0 0.0 0.0 0.00 0.00 0.00 72 1023.4
20260905084637 66 0 0.0 0.0 0.00 0.00 0.00 72 1023.5
20260905084137 66 0 0.0 0.0 0.00 0.00 0.00 72 1023.4
20260905083636 66 0 0.0 0.0 0.00 0.00 0.00 72 1023.1
20260905083136 66 0 0.0 0.0 0.00 0.00 0.00 72 1022.8
20260905082636 65 0 0.0 0.0 0.00 0.00 0.00 73 1022.9
20260905082136 65 0 0.0 0.0 0.00 0.00 0.00 74 1022.7
20260905081635 65 0 0.0 0.0 0.00 0.00 0.00 74 1022.7
20260905081135 64 0 0.0 0.0 0.00 0.00 0.00 74 1022.7
20260905080635 64 0 0.0 0.0 0.00 0.00 0.00 73 1022.6
20260905080134 64 0 0.0 0.0 0.00 0.00 0.00 72 1022.7
20260905075634 64 0 0.0 0.0 0.00 0.00 0.00 73 1022.8
20260905075134 64 0 0.0 0.0 0.00 0.00 0.00 74 1022.6
20260905074634 64 0 0.0 0.0 0.00 0.00 0.00 74 1022.6
20260905074133 64 0 0.0 0.0 0.00 0.00 0.00 74 1022.3
20260905073633 64 0 0.0 0.0 0.00 0.00 0.00 74 1022.4
20260905073133 64 0 0.0 0.0 0.00 0.00 0.00 75 1022.5
20260905072632 63 0 0.0 0.0 0.00 0.00 0.00 76 1022.3
20260905072132 62 0 0.0 0.0 0.00 0.00 0.00 77 1022.3
20260905071632 62 0 0.0 0.0 0.00 0.00 0.00 77 1022.3
20260905071132 61 0 0.0 0.0 0.00 0.00 0.00 77 1022.1
20260905070631 61 0 0.0 0.0 0.00 0.00 0.00 77 1022.1
20260905070131 60 0 0.0 0.0 0.00 0.00 0.00 76 1021.9
20260905065631 60 0 0.0 0.0 0.00 0.00 0.00 76 1022.0
20260905065130 60 0 0.0 0.0 0.00 0.00 0.00 75 1022.2
20260905064630 60 0 0.0 0.0 0.00 0.00 0.00 75 1022.0
20260905064130 60 0 0.0 0.0 0.00 0.00 0.00 75 1022.4
20260905063630 60 0 0.0 0.0 0.00 0.00 0.00 75 1022.4
20260905063129 60 0 0.0 0.0 0.00 0.00 0.00 74 1022.1
20260905062629 60 0 0.0 0.0 0.00 0.00 0.00 74 1021.9
20260905062129 61 0 0.0 0.0 0.00 0.00 0.00 74 1021.7
20260905061628 61 0 0.0 0.0 0.00 0.00 0.00 73 1021.6
20260905061128 61 0 0.0 0.0 0.00 0.00 0.00 73 1021.9
20260905060628 61 0 0.0 0.0 0.00 0.00 0.00 72 1021.9
20260905060128 61 0 0.0 0.0 0.00 0.00 0.00 72 1021.8
20260905055627 61 0 0.0 0.0 0.00 0.00 0.00 72 1022.0
20260905055127 61 0 0.0 0.0 0.00 0.00 0.00 71 1022.2
20260905054627 62 0 0.0 0.0 0.00 0.00 0.00 72 1022.3
20260905054126 62 0 0.0 0.0 0.00 0.00 0.00 72 1022.4
20260905053626 62 0 0.0 0.0 0.00 0.00 0.00 71 1022.6
20260905053126 62 0 0.0 0.0 0.00 0.00 0.00 71 1022.4
20260905052626 62 0 0.0 0.0 0.00 0.00 0.00 70 1022.2
20260905052125 62 0 0.0 0.0 0.00 0.00 0.00 69 1022.3
20260905051625 62 0 0.0 0.0 0.00 0.00 0.00 69 1022.1
20260905051125 62 0 0.0 0.0 0.00 0.00 0.00 70 1022.1
20260905050624 62 0 0.0 0.0 0.00 0.00 0.00 70 1022.0
20260905050124 62 0 0.0 0.0 0.00 0.00 0.00 70 1022.0
20260905045624 62 0 0.0 0.0 0.00 0.00 0.00 70 1021.8
20260905045124 63 0 0.0 0.0 0.00 0.00 0.00 70 1021.7
20260905044623 63 0 0.0 0.0 0.00 0.00 0.00 70 1021.5
20260905044123 63 0 0.0 0.0 0.00 0.00 0.00 69 1021.4
20260905043623 64 0 0.0 0.0 0.00 0.00 0.00 69 1021.4
20260905043122 64 0 0.0 0.0 0.00 0.00 0.00 69 1021.2
20260905042622 64 0 0.0 0.0 0.00 0.00 0.00 69 1021.2
20260905042122 65 0 0.0 0.0 0.00 0.00 0.00 69 1021.0
20260905041622 66 0 0.0 0.0 0.00 0.00 0.00 69 1020.8
20260905041121 66 0 0.0 0.0 0.00 0.00 0.00 69 1020.7
20260905040621 66 0 0.0 0.0 0.00 0.00 0.00 69 1020.6
20260905040121 66 0 0.0 0.0 0.00 0.00 0.00 69 1020.3
20260905035620 66 0 0.0 0.0 0.00 0.00 0.00 69 1020.4
20260905035120 66 0 0.0 0.0 0.00 0.00 0.00 70 1020.2
20260905034620 66 0 0.0 0.0 0.00 0.00 0.00 70 1020.2
20260905034120 66 0 0.0 0.0 0.00 0.00 0.00 69 1020.0
20260905033619 66 0 0.0 0.0 0.00 0.00 0.00 69 1019.8
20260905033119 66 0 0.0 0.0 0.00 0.00 0.00 69 1019.8
20260905032619 66 0 0.0 0.0 0.00 0.00 0.00 69 1019.7
20260905032118 66 0 0.0 0.0 0.00 0.00 0.00 70 1019.6
20260905031618 65 0 0.0 0.0 0.00 0.00 0.00 70 1019.7
20260905031118 65 0 0.0 0.0 0.00 0.00 0.00 69 1019.7
20260905030618 65 0 0.0 0.0 0.00 0.00 0.00 68 1019.5
20260905030117 65 0 0.0 0.0 0.00 0.00 0.00 68 1019.4
20260905025617 65 0 0.0 0.0 0.00 0.00 0.00 68 1019.3
20260905025117 66 0 0.0 0.0 0.00 0.00 0.00 67 1019.2
20260905024616 66 0 0.0 0.0 0.00 0.00 0.00 67 1019.2
20260905024116 66 0 0.0 0.0 0.00 0.00 0.00 67 1019.3
20260905023616 66 0 0.0 0.0 0.00 0.00 0.00 67 1019.2
20260905023116 66 0 0.0 0.0 0.00 0.00 0.00 67 1019.2
20260905022615 66 0 0.0 0.0 0.00 0.00 0.00 67 1019.2
20260905022115 66 0 0.0 0.0 0.00 0.00 0.00 67 1019.2
20260905021615 66 0 0.0 0.0 0.00 0.00 0.00 67 1019.1
20260905021114 66 0 0.0 0.0 0.00 0.00 0.00 67 1019.0
20260905020614 66 0 0.0 0.0 0.00 0.00 0.00 67 1019.0
20260905020114 66 0 0.0 0.0 0.00 0.00 0.00 66 1018.9
20260905015614 66 0 0.0 0.0 0.00 0.00 0.00 66 1019.1
20260905015113 67 0 0.0 0.0 0.00 0.00 0.00 66 1019.1
20260905014613 67 0 0.0 0.0 0.00 0.00 0.00 65 1019.0
20260905014113 67 0 0.0 0.0 0.00 0.00 0.00 65 1019.0
20260905013612 67 0 0.0 0.0 0.00 0.00 0.00 65 1019.0
20260905013112 67 0 0.0 0.0 0.00 0.00 0.00 64 1019.0
20260905012612 67 0 0.0 0.0 0.00 0.00 0.00 63 1018.8
20260905012112 67 0 0.0 0.0 0.00 0.00 0.00 63 1018.8
20260905011611 67 0 0.0 0.0 0.00 0.00 0.00 63 1018.7
20260905011111 67 0 0.0 0.0 0.00 0.00 0.00 62 1018.7
20260905010611 68 0 0.0 0.0 0.00 0.00 0.00 62 1018.8
20260905010111 68 0 0.0 0.0 0.00 0.00 0.00 61 1018.8
20260905005610 68 0 0.0 0.0 0.00 0.00 0.00 61 1018.8
20260905005110 68 0 0.0 0.0 0.00 0.00 0.00 61 1018.7
20260905004610 69 0 0.0 0.0 0.00 0.00 0.00 60 1018.8
20260905004109 69 0 0.0 0.0 0.00 0.00 0.00 60 1018.7
20260905003609 69 0 0.0 0.0 0.00 0.00 0.00 60 1018.7
20260905003109 69 0 0.0 0.0 0.00 0.00 0.00 60 1018.7
20260905002609 69 0 0.0 0.0 0.00 0.00 0.00 60 1018.7
20260905002108 69 0 0.0 0.0 0.00 0.00 0.00 59 1018.7
20260905001608 70 0 0.0 0.0 0.00 0.00 0.00 59 1018.7
20260905001108 70 0 0.0 0.0 0.00 0.00 0.00 59 1018.7
20260905000607 70 0 0.0 0.0 0.00 0.00 0.00 59 1018.7
20260905000107 70 0 0.0 0.0 0.00 0.00 0.00 59 1018.7
20260904235607 70 0 0.0 0.0 0.00 0.00 0.00 58 1018.8
20260904235107 70 0 0.0 0.0 0.00 0.00 0.00 58 1018.8
20260904234606 70 0 0.0 0.0 0.00 0.00 0.00 57 1018.8
20260904234106 71 0 0.0 0.0 0.00 0.00 0.00 57 1018.8
20260904233606 71 0 0.0 0.0 0.00 0.00 0.00 57 1018.7
20260904233105 71 0 0.0 0.0 0.00 0.00 0.00 57 1018.8
20260904232605 71 0 0.0 0.0 0.00 0.00 0.00 57 1018.9
20260904232105 71 0 0.0 0.0 0.00 0.00 0.00 56 1018.7
20260904231605 71 0 0.0 0.0 0.00 0.00 0.00 56 1018.8
20260904231104 71 0 0.0 0.0 0.00 0.00 0.00 56 1018.7
20260904230604 71 0 0.0 0.0 0.00 0.00 0.00 56 1018.7
20260904230104 71 0 0.0 0.0 0.00 0.00 0.00 57 1018.8
20260904225603 71 0 0.0 0.0 0.00 0.00 0.00 57 1018.8
20260904225103 71 0 0.0 0.0 0.00 0.00 0.00 57 1018.8
20260904224603 71 0 0.0 0.0 0.00 0.00 0.00 57 1018.8
20260904224103 70 0 0.0 0.0 0.00 0.00 0.00 58 1018.8
20260904223602 70 0 0.0 0.0 0.00 0.00 0.00 58 1018.9
20260904223102 70 0 0.0 0.0 0.00 0.00 0.00 58 1018.8
20260904222602 69 0 0.0 0.0 0.00 0.00 0.00 59 1018.8
20260904222101 69 0 0.0 0.0 0.00 0.00 0.00 59 1018.8
20260904221601 68 0 0.0 0.0 0.00 0.00 0.00 59 1018.8
20260904221101 68 0 0.0 0.0 0.00 0.00 0.00 59 1018.8
20260904220601 68 0 0.0 0.0 0.00 0.00 0.00 60 1018.7
20260904220100 68 0 0.0 0.0 0.00 0.00 0.00 60 1018.7
20260904215600 67 0 0.0 0.0 0.00 0.00 0.00 60 1018.7
20260904215100 67 0 0.0 0.0 0.00 0.00 0.00 61 1018.7
20260904214559 67 0 0.0 0.0 0.00 0.00 0.00 61 1018.6
20260904214059 66 0 0.0 0.0 0.00 0.00 0.00 61 1018.6
20260904213559 67 0 0.0 0.0 0.00 0.00 0.00 60 1018.5
20260904213059 67 0 0.0 0.0 0.00 0.00 0.00 60 1018.5
20260904212558 67 0 0.0 0.0 0.00 0.00 0.00 60 1018.5
20260904212058 67 0 0.0 0.0 0.00 0.00 0.00 60 1018.5
20260904211558 67 0 0.0 0.0 0.00 0.00 0.00 59 1018.5
20260904211057 67 0 0.0 0.0 0.00 0.00 0.00 59 1018.5
20260904210557 67 0 0.0 0.0 0.00 0.00 0.00 59 1018.5
20260904210057 67 0 0.0 0.0 0.00 0.00 0.00 59 1018.4
20260904205557 67 0 0.0 0.0 0.00 0.00 0.00 59 1018.4
20260904205056 68 0 0.0 0.0 0.00 0.00 0.00 58 1018.3
20260904204556 68 0 0.0 0.0 0.00 0.00 0.00 58 1018.4
20260904204056 68 0 0.0 0.0 0.00 0.00 0.00 58 1018.3
20260904203556 68 0 0.0 0.0 0.00 0.00 0.00 57 1018.3
20260904203055 68 0 0.0 0.0 0.00 0.00 0.00 57 1018.3
20260904202555 68 0 0.0 0.0 0.00 0.00 0.00 57 1018.2
20260904202055 69 0 0.0 0.0 0.00 0.00 0.00 57 1018.2